Location: Hilde
(52.9479°N, 6.4449°E)
Time: 10:04:30
(UTC+00:00)

Cosmos 1933 - Pass Details

Date: 15 May 2026
Orbit: 508 x 512 km, 82.5° (Epoch: 5 June)

Event Time Altitude Azimuth Distance (km) Brightness Sun altitude
Exits shadow 21:19:38 - 206° (SSW) 2,244 6.1 -12.6°
Reaches altitude 10° 21:20:55 10° 211° (SSW) 1,731 5.6 -12.7°
Maximum altitude 21:24:35 46° 286° (WNW) 694 4.2 -13.0°
Drops below altitude 10° 21:28:17 10° 1° (N) 1,748 6.8 -13.3°
Sets 21:30:30 0° 7° (N) 2,641 7.7 -13.5°
